Regional Weather Roundup
Issued by NWS

Home | Current Version | Previous Version | Text Only | Print | Product List | Glossary On
Versions: 1 2 3 4 5 6 7 8 9 10 11 12 13 14 15 16 17 18 19 20 21 22 23 24 25 26 27 28 29 30 31 32 33 34 35 36 37 38 39 40 41 42 43 44 45 46 47 48 49 50
000
ASUS43 KLOT 221210
RWRIL

ILLINOIS REGIONAL WEATHER ROUNDUP
NATIONAL WEATHER SERVICE CHICAGO/ROMEOVILLE IL
600 AM CST MON DEC 22 2014

NOTE: "FAIR" INDICATES FEW OR NO CLOUDS BELOW 12,000 FEET WITH NO
SIGNIFICANT WEATHER AND/OR OBSTRUCTIONS TO VISIBILITY.

* THESE STATIONS ARE NOT UNDER NWS QUALITY CONTROL. THEY ALSO MAY NOT
  REPORT WEATHER SUCH AS PRECIPITATION OR FOG.

ILZ001-002-007-009-015-016-024-221300-
NORTHWEST ILLINOIS

CITY           SKY/WX    TMP DP  RH WIND       PRES   REMARKS
MOLINE         CLOUDY    36  31  82 SE10      29.82S WCI  28
6HR MIN TEMP:  35; 6HR MAX TEMP:  37; 6HR PCP: TRACE;

STERLING*      CLOUDY    36  28  75 SE10      29.86F WCI  28
SAVANNA*       CLOUDY    36  31  83 SE12      29.84F WCI  28
$$

ILZ003-004-008-010-011-017-018-221300-
NORTH CENTRAL ILLINOIS

CITY           SKY/WX    TMP DP  RH WIND       PRES   REMARKS
ROCKFORD       DRIZZLE   33  29  85 SE14      29.91F FOG     WCI  23
6HR MIN TEMP:  33; 6HR MAX TEMP:  34; 6HR PCP:  0.02;

FREEPORT*      LGT RAIN  32  31  96 SE12      29.88F WCI  23
ROCHELLE*      CLOUDY    32  30  93 SE14      29.89F FOG     WCI  22
DE KALB*       CLOUDY    30  28  92 SE12      29.91S FOG     WCI  20
PERU*          CLOUDY    35  31  85 SE8       29.89F WCI  28
$$

ILZ005-006-012>014-019>023-221300-
NORTHEAST ILLINOIS

CITY           SKY/WX    TMP DP  RH WIND       PRES   REMARKS
CHICAGO-OHARE  CLOUDY    31  27  85 SE8       29.94F WCI  23
6HR MIN TEMP:  28; 6HR MAX TEMP:  32;

CHICAGO-MIDWAY CLOUDY    33  27  78 SE8       29.95F WCI  26
6HR MIN TEMP:  31; 6HR MAX TEMP:  34;

AURORA         CLOUDY    33  27  78 E10       29.92F HAZE    WCI  25
6HR MIN TEMP:  32; 6HR MAX TEMP:  33;

LANSING*       CLOUDY    31  27  84 SE8       29.95F WCI  24
JOLIET*        CLOUDY    32  28  86 E5        29.93F FOG     WCI  27
WAUKEGAN       CLOUDY    33  28  81 SE9       29.94S HAZE    WCI  25
6HR MIN TEMP:  31; 6HR MAX TEMP:  33;

DUPAGE AIRPORT CLOUDY    33  27  78 SE7       29.92F WCI  27
6HR MIN TEMP:  31; 6HR MAX TEMP:  33;

KANKAKEE*      CLOUDY    31  29  90 E9        29.94F WCI  23
WHEELING       CLOUDY    32  27  81 SE9       29.96F WCI  24
6HR MIN TEMP:  28; 6HR MAX TEMP:  32;

MORRIS*        CLOUDY    33  31  92 SE8       29.91F WCI  26
ROMEOVILLE*    CLOUDY    32  28  87 SE8       29.93F FOG     WCI  25
NORTHERLY ISL    N/A     32  27  82 S10         N/A  WCI  24
$$

LMZ740>746-221300-
SOUTHERN LAKE MICHIGAN

STATION/POSITION SKY/WX   TEMP    WIND        PRES    VSBY  WAVE
                          AIR SEA DIR/SP/G                  HT/PER
                          (F)     (DEG/KT/KT) (MB)    (MI)  (FT/S)
WAUKEGAN HARBOR            34     160/ 18/ 20   N/A
HARRISON CRIB              33     160/ 17/ 21   N/A
BURNHAM HARBOR             32     130/  6/ 13   N/A
CALUMET HARBOR             32     150/  6/  9 1013.6S
$$

ILZ025>027-034>036-040-047-049-050-058-095>099-221300-
WEST-CENTRAL ILLINOIS

CITY           SKY/WX    TMP DP  RH WIND       PRES   REMARKS
QUINCY         CLOUDY    39  32  76 SE12      29.75F WCI  32
GALESBURG*     CLOUDY    35  33  91 E8        29.81F WCI  28
MACOMB*        CLOUDY    37  33  86 SE12      29.82F WCI  29
JACKSONVILLE*  CLOUDY    39  33  80 E14       29.80F WCI  31
PITTSFIELD*    CLOUDY    39  33  79 SE9       29.79S WCI  33
$$

ILZ028>032-037-038-041>044-048-051>054-059>061-221300-
CENTRAL ILLINOIS

CITY           SKY/WX    TMP DP  RH WIND       PRES   REMARKS
PONTIAC        CLOUDY    33  31  94 SE12      29.91S FOG     WCI  24
BLOOMINGTON    CLOUDY    34  30  85 SE15      29.88F WCI  24
DECATUR        CLOUDY    34  30  85 SE12      29.87F WCI  25
PEORIA         CLOUDY    37  30  75 SE9       29.86F WCI  30
6HR MIN TEMP:  36; 6HR MAX TEMP:  38; 6HR PCP: TRACE;

LACON*         CLOUDY    33  30  86 SE6       29.87F WCI  28
LINCOLN*       CLOUDY    36  32  87 SE8       29.86F WCI  29
SPRINGFIELD    CLOUDY    37  31  78 SE12      29.84F WCI  29
6HR MIN TEMP:  37; 6HR MAX TEMP:  40; 6HR PCP: TRACE;

TAYLORVILLE    DRIZZLE   34  32  93 SE10      29.84F WCI  26
$$

ILZ033-039-045-046-055>057-062-063-221300-
EAST-CENTRAL ILLINOIS

CITY           SKY/WX    TMP DP  RH WIND       PRES   REMARKS
CHAMPAIGN      CLOUDY    33  29  85 E13       29.91S WCI  24
DANVILLE*      CLOUDY    32  29  88 E6        29.91S WCI  26
RANTOUL*       CLOUDY    34  31  89 SE9       29.91S WCI  27
MATTOON        CLOUDY    34  28  79 SE12      29.88F WCI  25
PARIS*         CLOUDY    33  31  90 E5        29.93S WCI  29
$$

ILZ079-100>102-221300-
SOUTHWEST ILLINOIS

CITY           SKY/WX    TMP DP  RH WIND       PRES   REMARKS
BELLEVILLE     LGT RAIN  39  37  93 E7        29.82F WCI  34
CAHOKIA*       LGT RAIN  40  36  86 SE8       29.80F FOG
SPARTA*        CLOUDY    39  34  81 SE8       29.83F WCI  34
$$

ILZ064>066-069>071-074>076-080>082-084>086-088>090-092>094-221300-
SOUTH-CENTRAL ILLINOIS

CITY           SKY/WX    TMP DP  RH WIND       PRES   REMARKS
CARBONDALE     CLOUDY    41  34  76 CALM      29.85S
6HR MIN TEMP:  39; 6HR MAX TEMP:  41; 6HR PCP: TRACE;

CAIRO*         CLOUDY    48  43  82 SE10      29.85S
EFFINGHAM*     CLOUDY    35  29  77 E8        29.90F WCI  29
MARION         CLOUDY    43  36  75 E3        29.85F
MT. VERNON     CLOUDY    37  28  70 E7        29.86F WCI  32
CENTRALIA*     LGT RAIN  38  32  78 SE5       29.85S WCI  35
SALEM*         LGT RAIN  40  32  74 E6        29.86S
METROPOLIS*    CLOUDY    45  41  86 SE7       29.85F
$$

ILZ067-068-072-073-078-083-087-091-221300-
SOUTHEAST ILLINOIS

CITY           SKY/WX    TMP DP  RH WIND       PRES   REMARKS
LAWRENCEVILLE  CLOUDY    35  31  85 E6        29.93F WCI  30
FLORA*         CLOUDY    36  32  86 E6        29.89F WCI  31
FAIRFIELD*     CLOUDY    38  32  79 E5        29.87F WCI  34
HARRISBURG*    CLOUDY    39  33  79 E8        29.88F WCI  33
ROBINSON*      CLOUDY    35  31  86 E5        29.93F WCI  31
CARMI*         CLOUDY    40  35  83 E7        29.89F
$$

ABBREVIATIONS USED IN REMARKS
   TC - TEMPERATURE IN CELSIUS
  WCI - WIND CHILL INDEX
   HX - HEAT INDEX
  VSB - VISIBILITY
$$



USA.gov is the U.S. government's official web portal to all federal, state and local government web resources and services.